SWA2893 KPHX-KLAX

Flight info

Callsign SWA2893
Flight time 1h 1m
Altitude 36000
Route KEENS3 WLVRN ESTWD HLYWD1
Aircraft B737/M-SDE2E3FGHIRWXY/LB1

Departure

Time 2026-04-22 01:06
Airport Phoenix Sky Harbor International Airport (KPHX)

Arrival

Time 2026-04-22 02:07
Airport Los Angeles International Airport (KLAX)
Time Latitude Longitude Altitude Speed Heading
2026-04-22 00:43 33.43392 -111.99993 1123 ft 0 kts 87°
2026-04-22 00:56 33.43391 -112.00000 1116 ft 4 kts 89°
2026-04-22 00:56 33.43396 -112.00030 1118 ft 4 kts 130°
2026-04-22 00:56 33.43414 -112.00042 1115 ft 1 kts 180°
2026-04-22 01:00 33.43413 -112.00042 1123 ft 1 kts 180°
2026-04-22 01:00 33.43397 -112.00042 1116 ft 4 kts 180°
2026-04-22 01:01 33.43360 -112.00042 1118 ft 7 kts 180°
2026-04-22 01:01 33.43342 -112.00042 1118 ft 0 kts 180°
2026-04-22 01:02 33.43334 -112.00042 1123 ft 3 kts 180°
2026-04-22 01:02 33.43305 -112.00044 1121 ft 5 kts 189°
2026-04-22 01:02 33.43274 -112.00051 1116 ft 5 kts 188°
2026-04-22 01:02 33.43237 -112.00046 1121 ft 7 kts 156°
2026-04-22 01:03 33.43214 -111.99989 1120 ft 8 kts 92°
2026-04-22 01:03 33.43213 -111.99920 1123 ft 8 kts 90°
2026-04-22 01:03 33.43214 -111.99851 1116 ft 9 kts 89°
2026-04-22 01:03 33.43214 -111.99762 1123 ft 12 kts 90°
2026-04-22 01:04 33.43213 -111.99651 1123 ft 15 kts 90°
2026-04-22 01:04 33.43213 -111.99520 1122 ft 16 kts 90°
2026-04-22 01:04 33.43212 -111.99401 1122 ft 11 kts 94°
2026-04-22 01:04 33.43165 -111.99340 1118 ft 11 kts 176°
2026-04-22 01:05 33.43105 -111.99378 1122 ft 10 kts 259°
2026-04-22 01:05 33.43105 -111.99469 1122 ft 14 kts 270°
2026-04-22 01:05 33.43105 -111.99859 1123 ft 81 kts 270°
2026-04-22 01:05 33.43106 -112.00771 1126 ft 136 kts 270°
2026-04-22 01:06 33.43092 -112.02001 1516 ft 149 kts 271°
2026-04-22 01:06 33.43077 -112.03266 2037 ft 157 kts 267°
2026-04-22 01:06 33.43032 -112.04587 2639 ft 161 kts 264°
2026-04-22 01:06 33.42985 -112.06034 2929 ft 188 kts 266°
2026-04-22 01:07 33.42772 -112.07645 3201 ft 207 kts 251°
2026-04-22 01:07 33.42249 -112.09360 3363 ft 232 kts 248°
2026-04-22 01:07 33.41648 -112.11240 3723 ft 250 kts 249°
2026-04-22 01:07 33.41029 -112.13216 4397 ft 257 kts 250°
2026-04-22 01:08 33.40409 -112.15231 5208 ft 261 kts 249°
2026-04-22 01:08 33.39787 -112.17269 6119 ft 260 kts 249°
2026-04-22 01:08 33.39241 -112.19328 6944 ft 266 kts 259°
2026-04-22 01:08 33.39264 -112.21571 7762 ft 277 kts 276°
2026-04-22 01:09 33.39586 -112.23857 8686 ft 280 kts 277°
2026-04-22 01:09 33.39946 -112.26170 9508 ft 286 kts 277°
2026-04-22 01:09 33.40317 -112.28525 9924 ft 289 kts 276°
2026-04-22 01:09 33.40690 -112.30934 10400 ft 306 kts 276°
2026-04-22 01:10 33.41085 -112.33552 10652 ft 331 kts 277°
2026-04-22 01:10 33.41500 -112.36306 11362 ft 339 kts 277°
2026-04-22 01:10 33.41918 -112.39092 12264 ft 340 kts 277°
2026-04-22 01:10 33.42335 -112.41880 13202 ft 341 kts 277°
2026-04-22 01:11 33.42752 -112.44690 14051 ft 345 kts 277°
2026-04-22 01:11 33.43171 -112.47530 14833 ft 348 kts 276°
2026-04-22 01:11 33.43594 -112.50402 15647 ft 352 kts 277°
2026-04-22 01:11 33.44020 -112.53301 16469 ft 355 kts 277°
2026-04-22 01:12 33.44450 -112.56233 17304 ft 359 kts 277°
2026-04-22 01:12 33.44883 -112.59193 18107 ft 363 kts 276°
2026-04-22 01:12 33.45165 -112.62152 18804 ft 363 kts 270°
2026-04-22 01:12 33.45207 -112.65183 19541 ft 364 kts 267°
2026-04-22 01:13 33.45185 -112.68226 20274 ft 367 kts 267°
2026-04-22 01:13 33.45179 -112.71289 20992 ft 370 kts 268°
2026-04-22 01:13 33.45202 -112.74386 21678 ft 373 kts 268°
2026-04-22 01:13 33.45238 -112.77503 22351 ft 376 kts 268°
2026-04-22 01:14 33.45518 -112.80643 22985 ft 384 kts 281°
2026-04-22 01:14 33.46431 -112.83681 23634 ft 390 kts 288°
2026-04-22 01:14 33.47486 -112.86692 24179 ft 393 kts 289°
2026-04-22 01:14 33.48579 -112.89711 24714 ft 396 kts 289°
2026-04-22 01:15 33.49681 -112.92750 25240 ft 399 kts 289°
2026-04-22 01:15 33.50765 -112.95768 25775 ft 401 kts 288°
2026-04-22 01:15 33.51862 -112.98847 26303 ft 403 kts 288°
2026-04-22 01:15 33.52956 -113.01949 26814 ft 405 kts 288°
2026-04-22 01:16 33.54051 -113.05070 27296 ft 407 kts 288°
2026-04-22 01:16 33.55150 -113.08216 27611 ft 412 kts 288°
2026-04-22 01:16 33.56259 -113.11393 28102 ft 413 kts 288°
2026-04-22 01:16 33.57365 -113.14571 28703 ft 413 kts 288°
2026-04-22 01:17 33.58467 -113.17742 29402 ft 410 kts 288°
2026-04-22 01:17 33.59561 -113.20888 30133 ft 407 kts 288°
2026-04-22 01:17 33.60645 -113.24011 30776 ft 404 kts 287°
2026-04-22 01:17 33.61721 -113.27114 31378 ft 402 kts 287°
2026-04-22 01:18 33.62789 -113.30199 31942 ft 400 kts 287°
2026-04-22 01:18 33.63851 -113.33271 32513 ft 398 kts 287°
2026-04-22 01:18 33.64908 -113.36329 33097 ft 395 kts 287°
2026-04-22 01:18 33.65959 -113.39372 33657 ft 393 kts 287°
2026-04-22 01:19 33.67001 -113.42395 34183 ft 391 kts 287°
2026-04-22 01:19 33.68038 -113.45404 34603 ft 390 kts 287°
2026-04-22 01:19 33.69062 -113.48381 34941 ft 391 kts 287°
2026-04-22 01:19 33.70113 -113.51439 35286 ft 391 kts 287°
2026-04-22 01:20 33.71134 -113.54414 35653 ft 390 kts 287°
2026-04-22 01:20 33.72165 -113.57415 36023 ft 389 kts 287°
2026-04-22 01:20 33.74256 -113.63524 36121 ft 395 kts 287°
2026-04-22 01:21 33.76324 -113.69563 36064 ft 389 kts 287°
2026-04-22 01:21 33.78374 -113.75560 36024 ft 388 kts 287°
2026-04-22 01:22 33.80421 -113.81572 35979 ft 389 kts 286°
2026-04-22 01:22 33.82472 -113.87604 35922 ft 390 kts 286°
2026-04-22 01:23 33.84525 -113.93649 35897 ft 390 kts 286°
2026-04-22 01:23 33.86576 -113.99701 35886 ft 390 kts 286°
2026-04-22 01:24 33.88608 -114.05706 35884 ft 389 kts 286°
2026-04-22 01:24 33.90607 -114.11728 35881 ft 385 kts 281°
2026-04-22 01:25 33.91782 -114.17935 35887 ft 379 kts 276°
2026-04-22 01:25 33.92765 -114.24196 35885 ft 380 kts 275°
2026-04-22 01:26 33.93777 -114.30452 35875 ft 380 kts 276°
2026-04-22 01:26 33.94826 -114.36772 35890 ft 392 kts 276°
2026-04-22 01:27 33.95923 -114.43328 35890 ft 406 kts 276°
2026-04-22 01:27 33.97053 -114.50052 35865 ft 410 kts 276°
2026-04-22 01:28 33.98172 -114.56712 35870 ft 406 kts 276°
2026-04-22 01:28 33.99280 -114.63350 35876 ft 403 kts 276°
2026-04-22 01:29 34.00378 -114.69963 35874 ft 401 kts 276°
2026-04-22 01:29 34.01471 -114.76581 35889 ft 404 kts 276°
2026-04-22 01:30 34.02566 -114.83229 35882 ft 405 kts 275°
2026-04-22 01:30 34.03658 -114.89872 35876 ft 402 kts 275°
2026-04-22 01:31 34.04739 -114.96468 35887 ft 400 kts 275°
2026-04-22 01:31 34.05812 -115.03049 35885 ft 400 kts 275°
2026-04-22 01:32 34.06883 -115.09621 35883 ft 400 kts 275°
2026-04-22 01:32 34.07954 -115.16220 35888 ft 402 kts 275°
2026-04-22 01:33 34.09025 -115.22833 35888 ft 401 kts 275°
2026-04-22 01:33 34.10091 -115.29436 35881 ft 400 kts 275°
2026-04-22 01:34 34.11150 -115.36020 35897 ft 399 kts 275°
2026-04-22 01:34 34.12193 -115.42539 35896 ft 398 kts 275°
2026-04-22 01:35 34.13240 -115.49098 35890 ft 397 kts 275°
2026-04-22 01:35 34.14280 -115.55640 35901 ft 397 kts 275°
2026-04-22 01:36 34.15315 -115.62170 35909 ft 396 kts 275°
2026-04-22 01:36 34.16282 -115.68708 35904 ft 393 kts 269°
2026-04-22 01:37 34.15877 -115.75194 35915 ft 387 kts 259°
2026-04-22 01:37 34.15186 -115.81640 35936 ft 387 kts 259°
2026-04-22 01:38 34.14540 -115.88057 35951 ft 387 kts 259°
2026-04-22 01:38 34.13928 -115.94376 35958 ft 364 kts 259°
2026-04-22 01:39 34.13349 -116.00301 35984 ft 352 kts 259°
2026-04-22 01:39 34.13060 -116.03238 35836 ft 354 kts 259°
2026-04-22 01:39 34.12771 -116.06180 35559 ft 349 kts 259°
2026-04-22 01:40 34.12485 -116.09089 35140 ft 346 kts 259°
2026-04-22 01:40 34.12205 -116.11949 34708 ft 342 kts 259°
2026-04-22 01:40 34.11925 -116.14788 34308 ft 338 kts 259°
2026-04-22 01:40 34.11647 -116.17595 33863 ft 336 kts 259°
2026-04-22 01:41 34.11371 -116.20378 33410 ft 332 kts 259°
2026-04-22 01:41 34.11100 -116.23104 32970 ft 330 kts 259°
2026-04-22 01:41 34.10828 -116.25837 32543 ft 327 kts 259°
2026-04-22 01:41 34.10558 -116.28546 32135 ft 324 kts 259°
2026-04-22 01:42 34.10285 -116.31233 31751 ft 321 kts 259°
2026-04-22 01:42 34.10003 -116.33896 31409 ft 319 kts 259°
2026-04-22 01:42 34.09718 -116.36549 31036 ft 319 kts 259°
2026-04-22 01:42 34.09431 -116.39210 30686 ft 321 kts 259°
2026-04-22 01:43 34.09142 -116.41892 30315 ft 324 kts 259°
2026-04-22 01:43 34.08851 -116.44596 29956 ft 325 kts 259°
2026-04-22 01:43 34.08561 -116.47294 29542 ft 324 kts 259°
2026-04-22 01:43 34.08272 -116.49986 29161 ft 323 kts 259°
2026-04-22 01:44 34.07984 -116.52664 28789 ft 321 kts 259°
2026-04-22 01:44 34.07695 -116.55332 28432 ft 320 kts 259°
2026-04-22 01:44 34.07412 -116.57950 28074 ft 318 kts 259°
2026-04-22 01:44 34.07136 -116.60623 27726 ft 317 kts 260°
2026-04-22 01:45 34.06893 -116.63231 27395 ft 316 kts 261°
2026-04-22 01:45 34.06654 -116.65861 27033 ft 316 kts 261°
2026-04-22 01:45 34.06414 -116.68493 26697 ft 316 kts 261°
2026-04-22 01:45 34.06173 -116.71126 26360 ft 315 kts 261°
2026-04-22 01:46 34.05929 -116.73757 26009 ft 315 kts 261°
2026-04-22 01:46 34.05684 -116.76383 25663 ft 313 kts 261°
2026-04-22 01:46 34.05442 -116.78982 25328 ft 310 kts 261°
2026-04-22 01:46 34.05202 -116.81552 24997 ft 306 kts 261°
2026-04-22 01:47 34.04965 -116.84083 24690 ft 302 kts 261°
2026-04-22 01:47 34.04728 -116.86590 24339 ft 300 kts 261°
2026-04-22 01:47 34.04491 -116.89077 24027 ft 298 kts 261°
2026-04-22 01:47 34.04195 -116.91553 23625 ft 298 kts 259°
2026-04-22 01:48 34.03863 -116.94021 23144 ft 298 kts 259°
2026-04-22 01:48 34.03535 -116.96472 22750 ft 295 kts 259°
2026-04-22 01:48 34.03214 -116.98906 22348 ft 292 kts 259°
2026-04-22 01:48 34.03005 -117.00500 22073 ft 291 kts 259°
2026-04-22 01:49 34.02693 -117.02900 21697 ft 288 kts 259°
2026-04-22 01:49 34.02399 -117.05284 21304 ft 286 kts 260°
2026-04-22 01:49 34.02122 -117.07642 20929 ft 283 kts 260°
2026-04-22 01:49 34.01847 -117.09984 20549 ft 282 kts 260°
2026-04-22 01:50 34.01573 -117.12319 20179 ft 280 kts 260°
2026-04-22 01:50 34.01300 -117.14635 19804 ft 278 kts 259°
2026-04-22 01:50 34.01026 -117.16943 19431 ft 278 kts 259°
2026-04-22 01:50 34.00751 -117.19252 19053 ft 277 kts 259°
2026-04-22 01:51 34.00476 -117.21551 18670 ft 276 kts 259°
2026-04-22 01:51 34.00203 -117.23837 18277 ft 275 kts 259°
2026-04-22 01:51 33.99934 -117.26084 17837 ft 274 kts 259°
2026-04-22 01:51 33.99661 -117.28358 17428 ft 273 kts 259°
2026-04-22 01:52 33.99390 -117.30614 17019 ft 271 kts 259°
2026-04-22 01:52 33.99125 -117.32853 16637 ft 270 kts 259°
2026-04-22 01:52 33.98864 -117.35082 16262 ft 267 kts 259°
2026-04-22 01:52 33.98605 -117.37289 15901 ft 265 kts 259°
2026-04-22 01:53 33.98347 -117.39486 15540 ft 265 kts 259°
2026-04-22 01:53 33.98088 -117.41687 15189 ft 265 kts 259°
2026-04-22 01:53 33.97829 -117.43884 14828 ft 264 kts 259°
2026-04-22 01:53 33.97570 -117.46070 14476 ft 263 kts 259°
2026-04-22 01:54 33.97347 -117.48257 14119 ft 264 kts 265°
2026-04-22 01:54 33.97580 -117.50467 13758 ft 269 kts 278°
2026-04-22 01:54 33.98083 -117.52638 13379 ft 269 kts 280°
2026-04-22 01:54 33.98569 -117.54621 13047 ft 268 kts 280°
2026-04-22 01:55 33.99096 -117.56775 12692 ft 267 kts 280°
2026-04-22 01:55 33.99606 -117.58885 12359 ft 265 kts 280°
2026-04-22 01:55 34.00112 -117.60999 12014 ft 264 kts 280°
2026-04-22 01:55 34.00616 -117.63125 11675 ft 263 kts 280°
2026-04-22 01:56 34.01117 -117.65250 11341 ft 264 kts 280°
2026-04-22 01:56 34.01618 -117.67382 11000 ft 264 kts 280°
2026-04-22 01:56 34.02084 -117.69512 10651 ft 260 kts 274°
2026-04-22 01:56 34.02065 -117.71651 10338 ft 253 kts 259°
2026-04-22 01:57 34.01851 -117.73751 10014 ft 251 kts 259°
2026-04-22 01:57 34.01639 -117.75834 9650 ft 249 kts 259°
2026-04-22 01:57 34.01430 -117.77893 9318 ft 246 kts 259°
2026-04-22 01:57 34.01227 -117.79935 8990 ft 245 kts 260°
2026-04-22 01:58 34.01029 -117.81952 8677 ft 247 kts 260°
2026-04-22 01:58 34.00826 -117.84014 8359 ft 248 kts 260°
2026-04-22 01:58 34.00623 -117.86087 8033 ft 249 kts 261°
2026-04-22 01:58 34.00420 -117.88164 7721 ft 250 kts 261°
2026-04-22 01:59 34.00215 -117.90251 7391 ft 251 kts 261°
2026-04-22 01:59 34.00010 -117.92339 7059 ft 250 kts 261°
2026-04-22 01:59 33.99806 -117.94420 6739 ft 249 kts 261°
2026-04-22 01:59 33.99604 -117.96485 6408 ft 248 kts 261°
2026-04-22 02:00 33.99400 -117.98552 6072 ft 248 kts 262°
2026-04-22 02:00 33.99196 -118.00610 5744 ft 247 kts 262°
2026-04-22 02:00 33.98993 -118.02658 5415 ft 245 kts 262°
2026-04-22 02:00 33.98787 -118.04710 5102 ft 248 kts 262°
2026-04-22 02:01 33.98605 -118.06540 4859 ft 248 kts 262°
2026-04-22 02:01 33.98399 -118.08609 4589 ft 248 kts 262°
2026-04-22 02:01 33.98195 -118.10648 4354 ft 241 kts 263°
2026-04-22 02:01 33.97999 -118.12611 4250 ft 231 kts 263°
2026-04-22 02:02 33.97812 -118.14485 4140 ft 220 kts 263°
2026-04-22 02:02 33.97632 -118.16290 3976 ft 213 kts 264°
2026-04-22 02:02 33.97487 -118.18030 3756 ft 211 kts 264°
2026-04-22 02:02 33.97325 -118.19785 3490 ft 210 kts 264°
2026-04-22 02:03 33.97148 -118.21531 3216 ft 210 kts 263°
2026-04-22 02:03 33.96967 -118.23267 2955 ft 207 kts 262°
2026-04-22 02:03 33.96789 -118.24966 2680 ft 201 kts 263°
2026-04-22 02:03 33.96620 -118.26583 2395 ft 187 kts 263°
2026-04-22 02:04 33.96327 -118.29394 1915 ft 151 kts 264°
2026-04-22 02:04 33.96206 -118.30561 1776 ft 130 kts 264°
2026-04-22 02:04 33.96099 -118.31592 1571 ft 118 kts 265°
2026-04-22 02:05 33.96001 -118.32568 1376 ft 120 kts 263°
2026-04-22 02:05 33.95896 -118.33563 1259 ft 121 kts 263°
2026-04-22 02:05 33.95783 -118.34589 1068 ft 126 kts 263°
2026-04-22 02:05 33.95672 -118.35643 895 ft 129 kts 264°
2026-04-22 02:06 33.95560 -118.36699 693 ft 126 kts 264°
2026-04-22 02:06 33.95460 -118.37755 529 ft 130 kts 262°
2026-04-22 02:06 33.95343 -118.38847 345 ft 129 kts 263°
2026-04-22 02:06 33.95245 -118.39877 185 ft 120 kts 262°
2026-04-22 02:07 33.95146 -118.40830 107 ft 108 kts 264°
2026-04-22 02:07 33.95073 -118.41538 107 ft 52 kts 263°
2026-04-22 02:07 33.95035 -118.41916 107 ft 39 kts 261°
2026-04-22 02:07 33.94951 -118.42175 105 ft 30 kts 232°
2026-04-22 02:08 33.94800 -118.42281 104 ft 23 kts 182°
2026-04-22 02:08 33.94691 -118.42253 98 ft 11 kts 133°
2026-04-22 02:08 33.94689 -118.42172 99 ft 10 kts 83°
2026-04-22 02:08 33.94699 -118.42073 97 ft 15 kts 83°
2026-04-22 02:09 33.94714 -118.41921 97 ft 22 kts 84°
2026-04-22 02:09 33.94734 -118.41722 97 ft 25 kts 83°
2026-04-22 02:09 33.94755 -118.41519 98 ft 24 kts 82°
2026-04-22 02:09 33.94787 -118.41331 99 ft 23 kts 79°
2026-04-22 02:10 33.94802 -118.41193 99 ft 12 kts 82°
2026-04-22 02:10 33.94814 -118.41095 100 ft 12 kts 81°
2026-04-22 02:10 33.94828 -118.41001 100 ft 11 kts 79°
2026-04-22 02:10 33.94836 -118.40908 100 ft 11 kts 91°
2026-04-22 02:11 33.94841 -118.40806 99 ft 14 kts 83°
2026-04-22 02:11 33.94854 -118.40676 99 ft 17 kts 82°
2026-04-22 02:11 33.94871 -118.40521 99 ft 19 kts 83°
2026-04-22 02:11 33.94887 -118.40366 99 ft 17 kts 83°
2026-04-22 02:12 33.94838 -118.40269 96 ft 14 kts 126°
2026-04-22 02:12 33.94830 -118.40194 95 ft 3 kts 82°
2026-04-22 02:12 33.94830 -118.40193 95 ft 0 kts 82°
2026-04-22 02:14 33.94830 -118.40192 95 ft 1 kts 82°
2026-04-22 02:14 33.94832 -118.40176 97 ft 3 kts 82°
2026-04-22 02:14 33.94836 -118.40139 95 ft 6 kts 82°
2026-04-22 02:14 33.94842 -118.40081 95 ft 8 kts 84°
2026-04-22 02:15 33.94834 -118.40019 95 ft 8 kts 129°
2026-04-22 02:15 33.94815 -118.40006 95 ft 0 kts 164°